This is the latest recevied weather packets stored in our database for station/object EFTU. If no packets are shown the sender has not sent any weather packets the latest 10 day(s).
| Time | Temp. | Humidity | Pressure | Rain* | Wind** | Luminosity | Snow |
|---|---|---|---|---|---|---|---|
| 1777444011 | 3.33° C | 45% | 1027.6 hPa | - | - | - | - |
| 1777442811 | 2.78° C | 48% | 1027.5 hPa | - | - | - | - |
| 1777441611 | 2.78° C | 51% | 1027.4 hPa | - | - | - | - |
| 1777440411 | 1.67° C | 54% | 1027.4 hPa | - | - | - | - |
| 1777439211 | 1.67° C | 57% | 1027.4 hPa | - | - | - | - |
| 1777438011 | 0.56° C | 59% | 1027.4 hPa | - | - | - | - |
| 1777436811 | 0° C | 60% | 1027.3 hPa | - | - | - | - |
| 1777435611 | -0.56° C | 61% | 1027.2 hPa | - | - | - | - |
| 1777434411 | -1.11° C | 62% | 1027.1 hPa | - | - | - | - |
| 1777433211 | -1.67° C | 62% | 1027.1 hPa | - | - | - | - |
| 1777432012 | -1.67° C | 62% | 1027 hPa | - | - | - | - |
| 1777430811 | -1.67° C | 61% | 1026.8 hPa | - | - | - | - |
| 1777429611 | -1.67° C | 61% | 1026.7 hPa | - | - | - | - |
| 1777428412 | -2.22° C | 61% | 1026.6 hPa | - | - | - | - |
| 1777427211 | -1.67° C | 62% | 1026.4 hPa | - | - | - | - |
| 1777426010 | -1.67° C | 61% | 1026.3 hPa | - | - | - | - |
| 1777424811 | -1.67° C | 62% | 1026.1 hPa | - | - | - | - |
| 1777423610 | -1.67° C | 60% | 1026 hPa | - | - | - | - |
| 1777422412 | -1.11° C | 59% | 1026 hPa | - | - | - | - |
| 1777421210 | -0.56° C | 58% | 1025.9 hPa | - | - | - | - |
| 1777420010 | -1.11° C | 59% | 1025.8 hPa | - | - | - | - |
| 1777418810 | -1.67° C | 59% | 1025.8 hPa | - | - | - | - |
| 1777417610 | -1.11° C | 58% | 1025.8 hPa | - | - | - | - |
| 1777416410 | -1.11° C | 57% | 1025.6 hPa | - | - | - | - |
| 1777415212 | -1.67° C | 57% | 1025.5 hPa | - | - | - | - |
* Rain since midnight (hover to see other rain measurements)
** Current wind speed in m/s (hover to see current wind gust speed)